Tracking 29892 objects as of 21-Nov-2024
HD Live streaming from Space Station
objects crossing your sky now

STARLINK-32128

Track STARLINK-32128 now!
10-day predictions
STARLINK-32128 is classified as:


NORAD ID: 60272
Int'l Code: 2024-131T
Perigee: 481.9 km
Apogee: 482.6 km
Inclination: 53.2 °
Period: 94.1 minutes
Semi major axis: 6853 km
RCS: Unknown
Launch date: July 27, 2024
Source: United States (US)
Launch site: AIR FORCE EASTERN TEST RANGE (AFETR)
Your satellite tracking list
Your tracking list is empty




NASA's NSSDC Master Catalog

Two Line Element Set (TLE):
1 60272U 24131T   24325.78087872 -.00006109  00000-0 -19415-3 0  9992
2 60272  53.1601  93.5083 0000539  35.7105 324.3932 15.30224931 19164
Source of the keplerian elements: AFSPC